IU1CYJ Weather Reports


time (UTC)temp
C
wind
direction
speed
KPH
gust
KPH
rain 1hr
cm
rain 24hr
cm
rain mn
cm
humidity
%
barometer
mb
20260505194552 13 0 0.0 0.0 0.00 0.61 0.61 90 1013.0
20260505193054 13 0 0.0 0.0 0.00 0.61 0.61 90 1013.0
20260505191603 13 0 0.0 0.0 0.00 0.61 0.61 89 1012.8
20260505190100 13 0 0.0 0.0 0.00 0.61 0.61 89 1012.7
20260505184553 13 0 0.0 0.0 0.00 0.61 0.61 88 1012.6
20260505183114 13 0 0.0 0.0 0.00 0.61 0.61 88 1012.7
20260505181557 13 0 0.0 0.0 0.00 0.61 0.61 87 1012.6
20260505180058 13 0 0.0 0.0 0.00 0.61 0.61 88 1012.6
20260505174555 13 0 0.0 0.0 0.00 0.66 0.61 87 1012.5
20260505173059 13 0 0.0 0.0 0.00 0.66 0.61 86 1012.4
20260505171601 13 0 0.0 1.6 0.00 0.66 0.61 86 1012.7
20260505170055 14 163 0.0 3.2 0.00 0.66 0.61 85 1012.7
20260505164555 14 170 0.0 3.2 0.00 0.66 0.61 84 1012.8
20260505163053 14 157 0.0 3.2 0.00 0.66 0.61 84 1013.0
20260505161618 14 0 0.0 3.2 0.00 0.66 0.61 84 1012.9
20260505153059 14 163 0.0 3.2 0.00 0.66 0.61 84 1012.9
20260505151617 14 160 0.0 3.2 0.00 0.66 0.61 83 1013.0
20260505124556 13 250 1.6 4.8 0.00 0.66 0.61 87 1013.7
20260505123056 12 225 0.0 4.8 0.00 0.66 0.61 90 1013.8
20260505121609 12 231 0.0 4.8 0.00 0.66 0.61 91 1013.8
20260505120112 12 255 1.6 4.8 0.00 0.66 0.61 91 1013.8
20260505114558 12 0 0.0 3.2 0.00 0.66 0.61 91 1014.1
20260505113056 12 257 0.0 1.6 0.00 0.66 0.61 92 1014.0
20260505111600 12 0 0.0 1.6 0.00 0.66 0.61 93 1014.2
20260505101558 11 0 0.0 1.6 0.03 0.66 0.61 93 1014.5
20260505100054 11 0 0.0 1.6 0.05 0.66 0.61 93 1014.6
20260505094555 11 0 0.0 3.2 0.08 0.66 0.61 94 1014.5
20260505093054 11 246 0.0 1.6 0.10 0.64 0.58 93 1014.4
20260505091606 11 0 0.0 1.6 0.10 0.64 0.56 93 1014.4
20260505090052 11 250 0.0 1.6 0.10 0.61 0.56 94 1014.4
20260505084552 11 252 0.0 3.2 0.08 0.56 0.51 93 1014.2
20260505083055 11 248 0.0 3.2 0.08 0.53 0.46 93 1014.1
20260505081605 11 259 0.0 3.2 0.13 0.51 0.46 93 1014.1
20260505080055 11 0 0.0 6.4 0.13 0.48 0.43 93 1014.0
20260505074559 11 254 0.0 3.2 0.13 0.46 0.41 93 1014.0
20260505073104 11 252 1.6 4.8 0.08 0.43 0.36 92 1013.8
20260505071559 11 0 0.0 3.2 0.03 0.36 0.30 92 1014.0
20260505070104 11 275 3.2 6.4 0.00 0.36 0.28 90 1013.7
20260505064558 11 0 0.0 6.4 0.00 0.33 0.28 89 1013.8
20260505063055 11 281 0.0 1.6 0.00 0.33 0.28 89 1013.7
20260505061609 11 0 0.0 3.2 0.00 0.33 0.28 89 1013.5
20260505060054 11 0 1.6 3.2 0.00 0.33 0.28 90 1013.4
20260505054625 11 250 0.0 3.2 0.00 0.33 0.28 91 1013.4
20260505053111 11 258 0.0 3.2 0.00 0.33 0.28 91 1013.4
20260505051554 11 0 0.0 4.8 0.10 0.33 0.28 91 1013.4
20260505041600 11 0 0.0 0.0 0.08 0.20 0.15 93 1013.9
20260505040058 11 0 0.0 0.0 0.00 0.15 0.08 94 1014.1
20260505034556 11 0 0.0 0.0 0.00 0.15 0.08 94 1014.3
20260505033052 11 0 0.0 0.0 0.00 0.13 0.08 94 1014.4
20260505031606 11 0 0.0 0.0 0.00 0.13 0.08 93 1014.4
20260505030055 11 0 0.0 0.0 0.00 0.13 0.08 93 1014.4
20260505024613 11 0 0.0 0.0 0.00 0.13 0.08 92 1014.4
20260505023111 12 0 0.0 1.6 0.00 0.13 0.08 92 1014.5
20260505021553 12 0 0.0 1.6 0.00 0.13 0.08 91 1014.5
20260505020053 12 0 0.0 1.6 0.00 0.13 0.08 90 1014.4
20260505014605 12 0 0.0 1.6 0.00 0.13 0.08 89 1014.3
20260505013108 12 0 0.0 1.6 0.00 0.13 0.08 89 1014.4
20260505011554 12 244 0.0 3.2 0.00 0.13 0.08 89 1014.5
20260505010053 12 237 0.0 3.2 0.00 0.10 0.05 90 1014.7
20260505004556 12 261 3.2 6.4 0.05 0.10 0.05 89 1014.9
20260505003053 12 254 0.0 1.6 0.05 0.10 0.05 87 1015.4
20260505001556 12 0 0.0 0.0 0.05 0.10 0.05 87 1016.0
20260505000112 12 0 0.0 1.6 0.05 0.10 0.05 82 1016.1
20260504234551 13 0 0.0 1.6 0.00 0.05 0.00 80 1016.2
20260504233057 12 0 0.0 0.0 0.00 0.05 0.00 82 1016.4
20260504231553 12 0 0.0 1.6 0.00 0.05 0.00 80 1016.5
20260504230106 12 225 0.0 0.0 0.00 0.05 0.00 82 1016.7
20260504224557 13 0 0.0 0.0 0.00 0.05 0.00 82 1016.9
20260504223056 13 0 0.0 1.6 0.00 0.05 0.00 79 1016.9
20260504221603 13 225 0.0 1.6 0.00 0.05 0.00 80 1016.9
20260504220101 12 0 0.0 0.0 0.00 0.05 0.00 83 1017.2
20260504214557 13 0 0.0 1.6 0.00 0.05 0.05 83 1017.5
20260504213054 13 0 0.0 0.0 0.00 0.05 0.05 82 1017.5
20260504211553 13 0 0.0 1.6 0.00 0.05 0.05 82 1017.7
20260504210056 13 0 0.0 4.8 0.00 0.05 0.05 80 1017.6
20260504204603 13 0 0.0 3.2 0.00 0.05 0.05 79 1017.6
20260504203107 13 217 1.6 6.4 0.00 0.05 0.05 78 1017.7
20260504201554 13 254 0.0 3.2 0.00 0.05 0.05 79 1017.8
20260504200058 13 0 0.0 4.8 0.00 0.05 0.05 80 1017.9